TimeEST,TemperatureF,Dew PointF,Humidity,Sea Level PressureIn,VisibilityMPH,Wind Direction,Wind SpeedMPH,Gust SpeedMPH,PrecipitationIn,Events,Conditions,WindDirDegrees,DateUTC
12:15 AM,3.2,-4.0,72,30.19,10.0,Calm,Calm,-,N/A,,Clear,0,2014-02-07 05:15:00
12:35 AM,1.4,-5.8,72,30.19,10.0,Calm,Calm,-,N/A,,Clear,0,2014-02-07 05:35:00
12:55 AM,1.4,-5.8,72,30.19,10.0,Calm,Calm,-,N/A,,Clear,0,2014-02-07 05:55:00
1:15 AM,-0.4,-7.6,72,30.18,10.0,Calm,Calm,-,N/A,,Clear,0,2014-02-07 06:15:00
1:35 AM,1.4,-5.8,72,30.18,10.0,Calm,Calm,-,N/A,,Clear,0,2014-02-07 06:35:00
1:55 AM,-0.4,-7.6,72,30.17,10.0,Calm,Calm,-,N/A,,Clear,0,2014-02-07 06:55:00
2:15 AM,-0.4,-9.4,66,30.17,10.0,Calm,Calm,-,N/A,,Clear,0,2014-02-07 07:15:00
2:35 AM,-0.4,-7.6,72,30.17,6.0,Calm,Calm,-,N/A,,Clear,0,2014-02-07 07:35:00
2:55 AM,-2.2,-11.2,66,30.17,10.0,Calm,Calm,-,N/A,,Partly Cloudy,0,2014-02-07 07:55:00
3:15 AM,-2.2,-9.4,71,30.17,10.0,Calm,Calm,-,N/A,,Clear,0,2014-02-07 08:15:00
3:35 AM,-4.0,-11.2,71,30.16,10.0,SSW,3.5,-,N/A,,Clear,200,2014-02-07 08:35:00
3:55 AM,-4.0,-11.2,71,30.16,10.0,SSW,3.5,-,N/A,,Clear,200,2014-02-07 08:55:00
4:15 AM,-5.8,-11.2,77,30.16,10.0,Calm,Calm,-,N/A,,Clear,0,2014-02-07 09:15:00
4:35 AM,-4.0,-11.2,71,30.17,10.0,Calm,Calm,-,N/A,,Clear,0,2014-02-07 09:35:00
4:55 AM,-2.2,-11.2,66,30.17,10.0,Calm,Calm,-,N/A,,Clear,0,2014-02-07 09:55:00
5:15 AM,-5.8,-13.0,71,30.18,10.0,Calm,Calm,-,N/A,,Clear,0,2014-02-07 10:15:00
5:35 AM,-5.8,-13.0,71,30.18,10.0,Calm,Calm,-,N/A,,Clear,0,2014-02-07 10:35:00
5:55 AM,-5.8,-14.8,65,30.18,10.0,Calm,Calm,-,N/A,,Clear,0,2014-02-07 10:55:00
6:15 AM,-7.6,-14.8,71,30.18,10.0,Calm,Calm,-,N/A,,Clear,0,2014-02-07 11:15:00
6:35 AM,-7.6,-14.8,71,30.19,5.0,Calm,Calm,-,N/A,,Clear,0,2014-02-07 11:35:00
6:55 AM,-7.6,-14.8,71,30.19,8.0,Calm,Calm,-,N/A,,Clear,0,2014-02-07 11:55:00
7:15 AM,-7.6,-14.8,71,30.20,8.0,Calm,Calm,-,N/A,,Clear,0,2014-02-07 12:15:00
7:35 AM,-7.6,-14.8,71,30.20,7.0,Calm,Calm,-,N/A,,Clear,0,2014-02-07 12:35:00
7:55 AM,-7.6,-14.8,71,30.20,9.0,Calm,Calm,-,N/A,,Clear,0,2014-02-07 12:55:00
8:15 AM,-5.8,-13.0,71,30.21,6.0,Calm,Calm,-,N/A,,Clear,0,2014-02-07 13:15:00
8:35 AM,-2.2,-9.4,71,30.21,7.0,Calm,Calm,-,N/A,,Clear,0,2014-02-07 13:35:00
8:55 AM,-0.4,-7.6,72,30.22,6.0,Calm,Calm,-,N/A,,Clear,0,2014-02-07 13:55:00
9:15 AM,-0.4,-5.8,78,30.22,6.0,Calm,Calm,-,N/A,,Partly Cloudy,0,2014-02-07 14:15:00
9:35 AM,3.2,-2.2,78,30.22,7.0,Calm,Calm,-,N/A,,Partly Cloudy,0,2014-02-07 14:35:00
9:55 AM,6.8,1.4,79,30.22,7.0,Calm,Calm,-,N/A,,Scattered Clouds,0,2014-02-07 14:55:00
10:15 AM,8.6,3.2,79,30.22,10.0,Calm,Calm,-,N/A,,Scattered Clouds,0,2014-02-07 15:15:00
10:35 AM,10.4,5.0,79,30.22,8.0,SW,3.5,-,N/A,,Mostly Cloudy,230,2014-02-07 15:35:00
10:55 AM,17.6,12.2,79,30.21,10.0,South,4.6,-,N/A,,Mostly Cloudy,190,2014-02-07 15:55:00
11:15 AM,19.4,8.6,63,30.20,10.0,West,11.5,17.3,N/A,,Scattered Clouds,270,2014-02-07 16:15:00
11:35 AM,21.2,6.8,54,30.19,10.0,West,10.4,-,N/A,,Partly Cloudy,280,2014-02-07 16:35:00
11:55 AM,-9999,-9999,N/A,30.18,10.0,West,10.4,16.1,N/A,,Scattered Clouds,280,2014-02-07 16:55:00
12:15 PM,23.0,3.2,43,30.17,10.0,WSW,12.7,16.1,N/A,,Partly Cloudy,250,2014-02-07 17:15:00
12:35 PM,23.0,3.2,43,30.16,10.0,SW,6.9,16.1,N/A,,Clear,230,2014-02-07 17:35:00
12:55 PM,23.0,3.2,43,30.15,10.0,WSW,6.9,-,N/A,,Clear,250,2014-02-07 17:55:00
1:15 PM,24.8,3.2,40,30.14,10.0,SW,8.1,-,N/A,,Clear,230,2014-02-07 18:15:00
1:35 PM,24.8,3.2,40,30.14,10.0,WSW,8.1,-,N/A,,Clear,240,2014-02-07 18:35:00
1:55 PM,26.6,5.0,40,30.14,10.0,WNW,9.2,-,N/A,,Clear,290,2014-02-07 18:55:00
2:15 PM,26.6,3.2,37,30.13,10.0,WSW,8.1,-,N/A,,Clear,250,2014-02-07 19:15:00
2:35 PM,-9999,-9999,N/A,30.12,10.0,West,12.7,17.3,N/A,,Clear,270,2014-02-07 19:35:00
2:55 PM,-9999,-9999,N/A,30.12,10.0,West,10.4,17.3,N/A,,Clear,280,2014-02-07 19:55:00
3:15 PM,26.6,3.2,37,30.12,10.0,WSW,8.1,17.3,N/A,,Clear,250,2014-02-07 20:15:00
3:35 PM,-9999,-9999,N/A,30.12,10.0,West,9.2,-,N/A,,Clear,270,2014-02-07 20:35:00
3:55 PM,-9999,-9999,N/A,30.13,10.0,West,9.2,17.3,N/A,,Clear,270,2014-02-07 20:55:00
4:15 PM,-9999,-9999,N/A,30.14,10.0,West,5.8,-,N/A,,Clear,270,2014-02-07 21:15:00
4:35 PM,26.6,3.2,37,30.15,10.0,WNW,3.5,-,N/A,,Clear,290,2014-02-07 21:35:00
4:55 PM,24.8,3.2,40,30.15,10.0,Calm,Calm,-,N/A,,Clear,0,2014-02-07 21:55:00
5:15 PM,24.8,1.4,36,30.15,10.0,West,3.5,-,N/A,,Clear,280,2014-02-07 22:15:00
5:35 PM,24.8,1.4,36,30.16,10.0,Calm,Calm,-,N/A,,Clear,0,2014-02-07 22:35:00
5:55 PM,21.2,3.2,46,30.16,10.0,Calm,Calm,-,N/A,,Scattered Clouds,0,2014-02-07 22:55:00
6:15 PM,19.4,1.4,46,30.16,10.0,Calm,Calm,-,N/A,,Partly Cloudy,0,2014-02-07 23:15:00
6:35 PM,21.2,3.2,46,30.17,10.0,Calm,Calm,-,N/A,,Partly Cloudy,0,2014-02-07 23:35:00
6:55 PM,19.4,3.2,49,30.18,10.0,Calm,Calm,-,N/A,,Clear,0,2014-02-07 23:55:00
7:15 PM,19.4,3.2,49,30.18,10.0,WSW,3.5,-,N/A,,Mostly Cloudy,240,2014-02-08 00:15:00
7:35 PM,21.2,3.2,46,30.18,10.0,SW,5.8,-,N/A,,Mostly Cloudy,220,2014-02-08 00:35:00
7:55 PM,-9999,-9999,N/A,30.17,10.0,WSW,3.5,-,N/A,,Mostly Cloudy,240,2014-02-08 00:55:00
8:15 PM,-9999,-9999,N/A,30.18,10.0,SW,4.6,-,N/A,,Mostly Cloudy,230,2014-02-08 01:15:00
8:35 PM,21.2,3.2,46,30.19,10.0,Calm,Calm,-,N/A,,Overcast,0,2014-02-08 01:35:00
8:55 PM,17.6,3.2,53,30.19,10.0,Calm,Calm,-,N/A,,Mostly Cloudy,0,2014-02-08 01:55:00
9:15 PM,15.8,3.2,58,30.19,10.0,Calm,Calm,-,N/A,,Overcast,0,2014-02-08 02:15:00
9:35 PM,17.6,5.0,58,30.19,10.0,South,3.5,-,N/A,,Mostly Cloudy,190,2014-02-08 02:35:00
9:55 PM,15.8,3.2,58,30.18,10.0,Calm,Calm,-,N/A,,Partly Cloudy,0,2014-02-08 02:55:00
10:15 PM,12.2,3.2,67,30.18,10.0,Calm,Calm,-,N/A,,Clear,0,2014-02-08 03:15:00
10:35 PM,12.2,3.2,67,30.18,10.0,South,3.5,-,N/A,,Clear,190,2014-02-08 03:35:00
10:55 PM,10.4,1.4,67,30.18,10.0,SW,4.6,-,N/A,,Clear,220,2014-02-08 03:55:00
11:15 PM,10.4,3.2,73,30.18,10.0,Calm,Calm,-,N/A,,Clear,0,2014-02-08 04:15:00
11:35 PM,8.6,1.4,73,30.18,10.0,South,4.6,-,N/A,,Clear,190,2014-02-08 04:35:00
11:55 PM,10.4,1.4,67,30.19,10.0,Calm,Calm,-,N/A,,Clear,0,2014-02-08 04:55:00